Regional Weather Roundup
Issued by NWS

Home | Current Version | Previous Version | Graphics & Text | Print | Product List | Glossary On
Versions: 1 2 3 4 5 6 7 8 9 10 11 12 13 14 15 16 17 18 19 20 21 22 23 24 25 26 27 28
000
ASUS45 KCYS 161910
RWRWY

WYOMING REGIONAL WEATHER ROUNDUP
NATIONAL WEATHER SERVICE CHEYENNE WY
1200 PM MST SAT DEC 16 2017

NOTE:  "FAIR" INDICATES FEW OR NO CLOUDS BELOW 12,000 FEET
WITH NO SIGNIFICANT WEATHER AND/OR OBSTRUCTIONS TO VISIBILITY.

WYZ001-162000-
YELLOWSTONE NATIONAL PARK

CITY           SKY/WX    TMP DP  RH WIND       PRES   REMARKS
LK YELLOWSTONE   N/A     22  19  89 CALM      29.84F
W YELLOWSTONE  NOT AVBL

$$
WYZ002>013-054>058-071-098>099-162000-
NORTHERN WYOMING

CITY           SKY/WX    TMP DP  RH WIND       PRES   REMARKS
JACKSON        CLOUDY    29  22  75 N9        29.84F WCI  20
CODY           LGT SNOW  32  28  86 N10       29.87S VSB 1   WCI  24
GREYBULL       LGT SNOW  33  32  96 CALM      29.87F FOG
WORLAND        SNOW      32  32 100 CALM      29.85F VSB 1/2
SHERIDAN       SNOW      31  29  92 NE5       29.95F VSB 1/2 WCI  26
BUFFALO        LGT SNOW  31  26  82 NE7       29.92F VSB 1   WCI  24
GILLETTE       CLOUDY    31  27  85 NE10      29.93F FOG     WCI  22
HULETT         CLOUDY    32  27  80 NE3       29.96S
NEWCASTLE      LGT SNOW  32  32 100 W6        29.90F VSB 3/4 WCI  26

$$
WYZ014>020-022>026-101>103-162000-
CENTRAL WYOMING

CITY           SKY/WX    TMP DP  RH WIND       PRES   REMARKS
BIG PINEY      CLOUDY    29  26  89 CALM      29.79F
PINEDALE       LGT SNOW  30  28  93 NW3       29.80F
DUBOIS         LGT SNOW  28  25  86 E9        29.79F WCI  20
LANDER         CLOUDY    30  27  88 NW12      29.81F WCI  20
RIVERTON       CLOUDY    29  28  96 NE8       29.83F FOG     WCI  21
CASPER         LGT SNOW  30  28  92 NE10      29.85F FOG     WCI  21
DOUGLAS        CLOUDY    33  29  85 NE5       29.87F WCI  29

$$
WYZ021-027>030-104>119-162000-
SOUTHERN WYOMING

CITY           SKY/WX    TMP DP  RH WIND       PRES   REMARKS
EVANSTON       CLOUDY    31  26  82 N5        29.80F WCI  26
FORT BRIDGER   CLOUDY    35  25  67 CALM      29.82F
ROCK SPRINGS   CLOUDY    35  23  61 SW9       29.79F WCI  28
DIXON          FAIR      32  16  51 CALM      29.82F
RAWLINS        CLOUDY    33  18  53 SW3       29.81F
SARATOGA       CLOUDY    32  19  59 W12       29.81F WCI  23
LARAMIE        PTSUNNY   30  21  69 CALM      29.80F
CHEYENNE       FAIR      38  17  42 NE9       29.83F WCI  31
TORRINGTON     FAIR      40  22  48 NE14      29.87F WCI  32
PINE BLUFFS    FAIR      43  18  36 MISG      29.84F

$$




USA.gov is the U.S. government's official web portal to all federal, state and local government web resources and services.